Regional Weather Roundup
Issued by NWS Albany, NY

Home | Current Version | Previous Version | Graphics & Text | Print | Product List | Glossary On
Versions: 1 2 3 4 5 6 7 8 9 10 11 12 13 14 15 16 17 18 19 20 21 22 23 24 25 26 27 28 29 30 31 32 33 34 35 36 37 38 39 40 41 42 43 44 45 46 47 48 49 50
000
ASUS41 KALY 221110
RWRALY

NEW YORK STATE HOURLY WEATHER ROUNDUP
NATIONAL WEATHER SERVICE ALBANY NY
700 AM EDT MON SEP 22 2014

NOTE: "FAIR" INDICATES FEW OR NO CLOUDS BELOW 12,000 FEET WITH NO
SIGNIFICANT WEATHER AND/OR NO OBSTRUCTIONS TO VISIBILITY.

NYZ032-033-038>043-046>054-057>066-NYZ062>081-221200-
EAST


CITY           SKY/WX    TMP DP  RH WIND       PRES   REMARKS
ALBANY         MOCLDY    60  51  72 NW18G28   29.72R
GLENS FALLS    PTCLDY    59  53  80 SW6       29.67R
POUGHKEEPSIE   PTCLDY    60  55  83 SW10      29.73R
NEWBURGH       PTCLDY    57  55  94 W12       29.76R
MONTGOMERY     CLEAR     57  52  83 SW6       29.76R
WHITE PLAINS   CLEAR     61  53  75 W8        29.75R
ISLIP          PTCLDY    62  56  80 W8        29.73R
NEW YORK CITY  PTCLDY    65  53  65 W14G21    29.77R
CENTRAL PARK   CLEAR     64  53  67 W7        29.80R
$$

NYZ005>009-017-018-044>046-055-056-221200-
CENTRAL


CITY           SKY/WX    TMP DP  RH WIND       PRES   REMARKS
FULTON         CLOUDY    51  44  77 NW14      29.85R
SYRACUSE       CLOUDY    52  47  83 W12       29.84R
ROME           CLOUDY    50  47  89 W16       29.83R
ELMIRA         CLOUDY    53  48  83 NW7       29.87R
BINGHAMTON     LGT RAIN  50  49  96 NW6       29.83R FOG
MONTICELLO     MOCLDY    54  52  94 W9        29.80R
$$

NYZ026>034-041>043-221200-
NORTH


CITY           SKY/WX    TMP DP  RH WIND       PRES   REMARKS
WATERTOWN      CLOUDY    51  40  65 W9        29.84R
FORT DRUM      NOT AVBL
MASSENA        CLOUDY    48  45  89 W13G20    29.75R
SARANAC LAKE   CLOUDY    43  42  97 W7G18     29.71R FOG
PLATTSBURGH    MOCLDY    52  44  74 W10G22    29.65R
$$

NYZ001>004-010>016-019>021-221200-
WEST


CITY           SKY/WX    TMP DP  RH WIND       PRES   REMARKS
NIAGARA FALLS  MOCLDY    50  41  71 NW18G25   29.96R
BUFFALO        CLOUDY    50  41  71 NW14      29.96R
DUNKIRK        CLOUDY    51  44  77 NW15G28   29.99R
JAMESTOWN      CLOUDY    45  43  93 NW13      29.98R
WELLSVILLE     LGT RAIN  46  44  93 NW15G23   29.93R
ROCHESTER      CLOUDY    50  45  83 NW8       29.91R
PENN YAN       CLOUDY    49  48  97 NW8G26    29.88R
$$

             KEY
       WCI = WIND CHILL INDEX
       VSB = VISIBILITY
       HX  = HEAT INDEX
$$



USA.gov is the U.S. government's official web portal to all federal, state and local government web resources and services.